Location: Heidgraben
(53.7081°N, 9.6576°E)
Time: 20:59:34
(UTC+00:00)

APEX - Pass Details

Date: 05 July 2020
Orbit: 333 x 1107 km, 69.9° (Epoch: 14 August)

Event Time Altitude Azimuth Distance (km) Brightness Sun altitude
Rises 21:59:10 0° 332° (NNW) 2,205 8.5 -11.3°
Reaches altitude 10° 22:01:26 10° 348° (NNW) 1,307 6.8 -11.5°
Maximum altitude 22:03:46 23° 45° (NE) 775 4.4 -11.6°
Drops below altitude 10° 22:06:02 10° 101° (ESE) 1,280 4.9 -11.7°
Enters shadow 22:06:18 - 104° (ESE) 1,375 5.0 -11.7°
